| time (UTC) | temp F | wind direction | speed knots | gust knots | rain 1hr in | rain 24hr in | rain mn in | humidity % | barometer mb |
| 20260505124804 | 59 | 113 | 0.0 | 0.0 | 0.04 | 0.12 | 0.12 | 89 | 1009.4 |
| 20260505124254 | 60 | 113 | 0.0 | 0.0 | 0.02 | 0.11 | 0.11 | 88 | 1009.6 |
| 20260505123743 | 60 | 113 | 0.0 | 0.0 | 0.01 | 0.09 | 0.09 | 86 | 1009.5 |
| 20260505122214 | 62 | 135 | 0.0 | 0.0 | 0.00 | 0.08 | 0.08 | 79 | 1009.8 |
| 20260505121705 | 62 | 135 | 0.0 | 0.0 | 0.00 | 0.08 | 0.08 | 78 | 1009.6 |
| 20260505121154 | 62 | 113 | 0.0 | 0.0 | 0.00 | 0.08 | 0.08 | 78 | 1009.8 |
| 20260505120643 | 62 | 113 | 0.0 | 0.0 | 0.00 | 0.08 | 0.08 | 77 | 1009.7 |
| 20260505120133 | 63 | 135 | 0.0 | 0.0 | 0.00 | 0.08 | 0.08 | 77 | 1009.8 |
| 20260505115623 | 63 | 113 | 0.0 | 0.0 | 0.00 | 0.08 | 0.08 | 76 | 1009.8 |
| 20260505115113 | 64 | 135 | 0.0 | 0.0 | 0.00 | 0.08 | 0.08 | 75 | 1009.4 |
| 20260505114602 | 64 | 135 | 0.0 | 0.0 | 0.00 | 0.08 | 0.08 | 76 | 1009.6 |
| 20260505114052 | 64 | 135 | 0.0 | 0.0 | 0.00 | 0.08 | 0.08 | 75 | 1009.7 |
| 20260505113542 | 64 | 113 | 0.0 | 0.0 | 0.00 | 0.08 | 0.08 | 75 | 1009.6 |
| 20260505113033 | 64 | 135 | 0.0 | 0.0 | 0.00 | 0.08 | 0.08 | 75 | 1009.7 |
| 20260505112523 | 64 | 158 | 0.0 | 0.0 | 0.00 | 0.08 | 0.08 | 79 | 1009.7 |
| 20260505112012 | 63 | 135 | 0.0 | 0.0 | 0.00 | 0.08 | 0.08 | 79 | 1009.5 |
| 20260505111502 | 63 | 113 | 0.0 | 0.0 | 0.00 | 0.08 | 0.08 | 78 | 1009.4 |
| 20260505110952 | 63 | 135 | 0.0 | 0.0 | 0.00 | 0.08 | 0.08 | 77 | 1010.0 |
| 20260505110442 | 63 | 135 | 0.0 | 0.0 | 0.00 | 0.08 | 0.08 | 77 | 1009.8 |
| 20260505101812 | 66 | 135 | 0.0 | 0.0 | 0.00 | 0.08 | 0.08 | 73 | 1009.6 |
| 20260505101301 | 66 | 158 | 0.0 | 0.0 | 0.00 | 0.08 | 0.08 | 74 | 1009.6 |
| 20260505100750 | 65 | 113 | 0.0 | 0.0 | 0.00 | 0.08 | 0.08 | 74 | 1009.8 |
| 20260505100240 | 65 | 158 | 0.0 | 0.0 | 0.00 | 0.08 | 0.08 | 75 | 1009.9 |
| 20260505095730 | 66 | 158 | 0.0 | 0.0 | 0.00 | 0.08 | 0.08 | 75 | 1009.8 |
| 20260505095219 | 66 | 135 | 0.0 | 0.0 | 0.00 | 0.08 | 0.08 | 75 | 1009.8 |
| 20260505094710 | 67 | 203 | 0.0 | 0.0 | 0.00 | 0.08 | 0.08 | 77 | 1009.9 |
| 20260505094200 | 65 | 158 | 0.0 | 0.0 | 0.00 | 0.08 | 0.08 | 78 | 1009.8 |
| 20260505093649 | 64 | 158 | 0.0 | 0.0 | 0.00 | 0.08 | 0.08 | 78 | 1009.8 |
| 20260505093140 | 65 | 180 | 0.0 | 0.0 | 0.00 | 0.08 | 0.08 | 77 | 1009.7 |
| 20260505092630 | 65 | 158 | 0.0 | 0.0 | 0.00 | 0.08 | 0.08 | 77 | 1009.8 |
| 20260505092119 | 66 | 135 | 0.0 | 0.0 | 0.00 | 0.08 | 0.08 | 76 | 1009.6 |
| 20260505091609 | 66 | 158 | 0.0 | 0.0 | 0.00 | 0.08 | 0.08 | 76 | 1009.7 |
| 20260505090549 | 65 | 135 | 0.0 | 0.0 | 0.00 | 0.08 | 0.08 | 77 | 1009.9 |
| 20260505085529 | 66 | 135 | 0.0 | 0.0 | 0.00 | 0.08 | 0.08 | 76 | 1009.8 |
| 20260505085019 | 66 | 180 | 0.0 | 0.0 | 0.00 | 0.08 | 0.08 | 77 | 1009.8 |
| 20260505084513 | 65 | 113 | 0.0 | 0.0 | 0.00 | 0.08 | 0.08 | 77 | 1009.7 |
| 20260505083959 | 67 | 90 | 0.0 | 0.0 | 0.00 | 0.08 | 0.08 | 77 | 1009.7 |
| 20260505083448 | 66 | 90 | 0.0 | 0.0 | 0.00 | 0.08 | 0.08 | 78 | 1010.0 |
| 20260505082939 | 65 | 113 | 0.0 | 0.0 | 0.00 | 0.08 | 0.08 | 77 | 1009.8 |
| 20260505082429 | 66 | 113 | 0.0 | 0.0 | 0.00 | 0.08 | 0.08 | 78 | 1009.8 |
| 20260505081918 | 63 | 270 | 0.0 | 0.0 | 0.00 | 0.08 | 0.08 | 79 | 1010.1 |
| 20260505081408 | 63 | 248 | 0.0 | 0.0 | 0.00 | 0.08 | 0.08 | 79 | 1010.0 |
| 20260505080347 | 64 | 225 | 0.0 | 0.0 | 0.00 | 0.08 | 0.08 | 79 | 1009.8 |
| 20260505075837 | 64 | 248 | 0.0 | 0.0 | 0.00 | 0.08 | 0.08 | 80 | 1010.1 |
| 20260505075328 | 64 | 135 | 0.0 | 0.0 | 0.00 | 0.08 | 0.08 | 80 | 1009.9 |
| 20260505074819 | 63 | 248 | 0.0 | 0.0 | 0.00 | 0.08 | 0.08 | 79 | 1010.0 |
| 20260505074307 | 63 | 248 | 0.0 | 0.0 | 0.00 | 0.08 | 0.08 | 81 | 1010.0 |
| 20260505072737 | 61 | 0 | 0.0 | 0.0 | 0.00 | 0.08 | 0.08 | 91 | 1009.7 |
| 20260505072228 | 61 | 90 | 0.0 | 0.0 | 0.00 | 0.08 | 0.08 | 93 | 1010.0 |
| 20260505071717 | 61 | 135 | 0.0 | 0.0 | 0.00 | 0.08 | 0.08 | 94 | 1010.0 |
| 20260505065126 | 59 | 90 | 0.0 | 0.0 | 0.00 | 0.08 | 0.08 | 96 | 1010.3 |
| 20260505064616 | 59 | 90 | 0.0 | 0.0 | 0.00 | 0.08 | 0.08 | 95 | 1010.0 |
| 20260505063556 | 58 | 113 | 0.0 | 0.0 | 0.00 | 0.08 | 0.08 | 95 | 1010.1 |
| 20260505063046 | 59 | 113 | 0.0 | 0.0 | 0.00 | 0.08 | 0.08 | 95 | 1010.0 |
| 20260505062536 | 60 | 68 | 0.0 | 0.0 | 0.00 | 0.08 | 0.08 | 96 | 1010.1 |
| 20260505062025 | 58 | 338 | 0.0 | 0.0 | 0.00 | 0.08 | 0.08 | 96 | 1010.1 |
| 20260505061516 | 58 | 338 | 0.0 | 0.0 | 0.00 | 0.08 | 0.08 | 96 | 1009.9 |
| 20260505061005 | 57 | 293 | 0.0 | 0.0 | 0.00 | 0.08 | 0.08 | 96 | 1009.9 |
| 20260505060455 | 56 | 293 | 0.0 | 0.0 | 0.00 | 0.08 | 0.08 | 96 | 1010.1 |
| 20260505055435 | 57 | 135 | 0.0 | 0.0 | 0.00 | 0.08 | 0.08 | 96 | 1009.9 |
| 20260505054925 | 55 | 135 | 0.0 | 0.0 | 0.00 | 0.08 | 0.08 | 96 | 1009.9 |
| 20260505054415 | 55 | 158 | 0.0 | 0.0 | 0.00 | 0.08 | 0.08 | 96 | 1009.7 |
| 20260505053904 | 55 | 158 | 0.0 | 0.0 | 0.00 | 0.08 | 0.08 | 96 | 1009.6 |
| 20260505053355 | 55 | 158 | 0.0 | 0.0 | 0.00 | 0.08 | 0.08 | 96 | 1009.7 |
| 20260505051824 | 55 | 338 | 0.0 | 0.0 | 0.00 | 0.08 | 0.08 | 96 | 1009.5 |
| 20260505050804 | 55 | 315 | 0.0 | 0.0 | 0.00 | 0.08 | 0.08 | 95 | 1009.6 |
| 20260505050254 | 55 | 315 | 0.0 | 0.0 | 0.00 | 0.08 | 0.08 | 95 | 1009.4 |
| 20260505041622 | 54 | 0 | 0.0 | 0.0 | 0.00 | 0.08 | 0.08 | 95 | 1009.2 |
| 20260505041112 | 54 | 90 | 0.0 | 0.0 | 0.00 | 0.08 | 0.08 | 95 | 1009.3 |
| 20260505040049 | 53 | 90 | 0.0 | 0.0 | 0.00 | 0.08 | 0.08 | 95 | 1009.3 |
| 20260505035542 | 54 | 315 | 0.0 | 0.0 | 0.00 | 0.08 | 0.08 | 95 | 1009.5 |
| 20260505035032 | 54 | 315 | 0.0 | 0.0 | 0.00 | 0.08 | 0.08 | 95 | 1009.5 |
| 20260505034522 | 55 | 315 | 0.0 | 0.0 | 0.00 | 0.08 | 0.08 | 95 | 1009.6 |
| 20260505034012 | 55 | 315 | 0.0 | 0.0 | 0.00 | 0.08 | 0.08 | 95 | 1009.4 |
| 20260505033502 | 55 | 315 | 0.0 | 0.0 | 0.00 | 0.08 | 0.08 | 95 | 1009.5 |
| 20260505032951 | 55 | 315 | 0.0 | 0.0 | 0.00 | 0.08 | 0.08 | 95 | 1009.4 |
| 20260505031932 | 55 | 315 | 0.0 | 0.0 | 0.00 | 0.08 | 0.08 | 95 | 1009.7 |
| 20260505031421 | 55 | 315 | 0.0 | 0.0 | 0.00 | 0.08 | 0.08 | 95 | 1009.5 |
| 20260505030911 | 55 | 315 | 0.0 | 0.0 | 0.00 | 0.08 | 0.08 | 95 | 1009.5 |
| 20260505030401 | 55 | 315 | 0.0 | 0.0 | 0.00 | 0.08 | 0.08 | 94 | 1009.6 |
| 20260505025341 | 55 | 338 | 0.0 | 0.0 | 0.00 | 0.08 | 0.08 | 94 | 1009.5 |
| 20260505024831 | 55 | 113 | 0.0 | 0.0 | 0.00 | 0.08 | 0.08 | 94 | 1009.6 |
| 20260505023811 | 55 | 113 | 0.0 | 0.0 | 0.00 | 0.08 | 0.08 | 94 | 1009.4 |
| 20260505023301 | 56 | 315 | 0.0 | 0.0 | 0.00 | 0.08 | 0.08 | 94 | 1009.4 |
| 20260505022240 | 56 | 315 | 0.0 | 1.7 | 0.00 | 0.08 | 0.08 | 94 | 1009.5 |
| 20260505020710 | 56 | 135 | 0.0 | 0.0 | 0.00 | 0.08 | 0.08 | 93 | 1009.7 |
| 20260505015652 | 56 | 338 | 0.0 | 0.0 | 0.01 | 0.08 | 0.08 | 93 | 1009.4 |
| 20260505015145 | 56 | 293 | 0.0 | 0.0 | 0.01 | 0.08 | 0.08 | 93 | 1009.3 |
| 20260505014632 | 56 | 293 | 0.0 | 0.0 | 0.01 | 0.08 | 0.08 | 93 | 1009.2 |
| 20260505013613 | 56 | 293 | 0.0 | 0.0 | 0.05 | 0.08 | 0.08 | 93 | 1009.4 |
| 20260505013101 | 57 | 315 | 0.0 | 0.0 | 0.06 | 0.08 | 0.08 | 92 | 1009.3 |
| 20260505012555 | 56 | 293 | 0.0 | 0.0 | 0.06 | 0.08 | 0.08 | 93 | 1009.2 |
| 20260505012042 | 57 | 248 | 0.0 | 0.0 | 0.07 | 0.08 | 0.08 | 93 | 1009.2 |
| 20260505011532 | 57 | 293 | 0.0 | 0.0 | 0.08 | 0.08 | 0.08 | 93 | 1009.5 |
| 20260505011023 | 57 | 248 | 0.0 | 0.0 | 0.08 | 0.08 | 0.08 | 93 | 1009.3 |
| 20260505010511 | 57 | 248 | 0.0 | 0.0 | 0.08 | 0.08 | 0.08 | 92 | 1009.1 |
| 20260505010003 | 57 | 248 | 0.0 | 0.0 | 0.07 | 0.07 | 0.07 | 92 | 1009.4 |
| 20260505004938 | 58 | 338 | 0.0 | 0.0 | 0.07 | 0.07 | 0.07 | 92 | 1009.6 |
| 20260505004433 | 58 | 338 | 0.0 | 0.0 | 0.07 | 0.07 | 0.07 | 92 | 1009.5 |
| 20260505003925 | 58 | 270 | 0.0 | 0.0 | 0.05 | 0.05 | 0.05 | 91 | 1009.3 |
| 20260505003411 | 58 | 293 | 0.0 | 0.0 | 0.02 | 0.02 | 0.02 | 92 | 1009.4 |
| 20260505002900 | 58 | 338 | 0.0 | 0.0 | 0.02 | 0.02 | 0.02 | 91 | 1009.4 |
| 20260505002349 | 58 | 293 | 0.0 | 0.0 | 0.02 | 0.02 | 0.02 | 91 | 1009.6 |
| 20260505001841 | 58 | 248 | 0.0 | 0.0 | 0.01 | 0.01 | 0.01 | 91 | 1009.6 |
| 20260504235955 | 59 | 270 | 0.0 | 0.0 | 0.00 | 0.01 | 0.00 | 90 | 1009.5 |
| 20260504235441 | 59 | 293 | 0.0 | 0.0 | 0.00 | 0.01 | 0.00 | 90 | 1009.3 |
| 20260504234932 | 59 | 315 | 0.0 | 0.0 | 0.00 | 0.01 | 0.00 | 90 | 1009.5 |
| 20260504234421 | 59 | 315 | 0.0 | 0.0 | 0.00 | 0.01 | 0.00 | 90 | 1009.3 |
| 20260504233915 | 59 | 0 | 0.0 | 0.0 | 0.00 | 0.01 | 0.00 | 90 | 1009.2 |
| 20260504233402 | 59 | 338 | 0.0 | 0.0 | 0.00 | 0.01 | 0.00 | 90 | 1009.3 |
| 20260504232850 | 59 | 338 | 0.0 | 0.0 | 0.00 | 0.01 | 0.00 | 90 | 1009.2 |
| 20260504232340 | 59 | 0 | 0.0 | 0.0 | 0.00 | 0.01 | 0.00 | 90 | 1009.2 |
| 20260504231830 | 59 | 338 | 0.0 | 0.0 | 0.00 | 0.01 | 0.00 | 91 | 1009.2 |
| 20260504231320 | 59 | 0 | 0.0 | 0.0 | 0.00 | 0.01 | 0.00 | 91 | 1009.1 |
| 20260504230809 | 58 | 338 | 0.0 | 0.0 | 0.00 | 0.01 | 0.00 | 91 | 1009.0 |
| 20260504230259 | 59 | 0 | 0.0 | 0.0 | 0.00 | 0.01 | 0.00 | 91 | 1008.9 |
| 20260504225749 | 59 | 338 | 0.0 | 0.0 | 0.00 | 0.01 | 0.00 | 91 | 1009.0 |
| 20260504225239 | 59 | 338 | 0.0 | 0.0 | 0.00 | 0.01 | 0.00 | 91 | 1009.0 |
| 20260504224729 | 59 | 0 | 0.0 | 0.0 | 0.00 | 0.01 | 0.00 | 90 | 1009.1 |
| 20260504224219 | 59 | 23 | 0.0 | 0.0 | 0.00 | 0.01 | 0.00 | 90 | 1009.0 |
| 20260504223716 | 59 | 45 | 0.0 | 0.0 | 0.00 | 0.01 | 0.00 | 90 | 1008.9 |
| 20260504223159 | 59 | 45 | 0.0 | 0.0 | 0.00 | 0.01 | 0.00 | 91 | 1008.9 |
| 20260504222649 | 59 | 315 | 0.0 | 0.0 | 0.00 | 0.01 | 0.00 | 91 | 1008.9 |
| 20260504222139 | 60 | 293 | 0.0 | 0.0 | 0.00 | 0.01 | 0.00 | 92 | 1009.2 |
| 20260504221629 | 60 | 293 | 0.0 | 0.0 | 0.00 | 0.01 | 0.00 | 92 | 1009.3 |
| 20260504220608 | 62 | 270 | 0.0 | 0.0 | 0.00 | 0.01 | 0.00 | 93 | 1009.2 |
| 20260504220058 | 62 | 315 | 0.0 | 0.0 | 0.00 | 0.01 | 0.00 | 93 | 1009.2 |
| 20260504215548 | 62 | 68 | 0.0 | 0.0 | 0.00 | 0.01 | 0.01 | 93 | 1009.3 |
| 20260504215038 | 62 | 45 | 0.0 | 0.0 | 0.00 | 0.01 | 0.01 | 93 | 1009.3 |
| 20260504214528 | 62 | 45 | 0.0 | 0.0 | 0.00 | 0.01 | 0.01 | 93 | 1009.3 |
| 20260504214017 | 62 | 338 | 0.0 | 0.0 | 0.00 | 0.01 | 0.01 | 93 | 1009.3 |
| 20260504213509 | 62 | 338 | 0.0 | 0.0 | 0.00 | 0.01 | 0.01 | 93 | 1009.4 |
| 20260504212957 | 62 | 338 | 0.0 | 0.0 | 0.00 | 0.01 | 0.01 | 93 | 1009.3 |
| 20260504211937 | 62 | 45 | 0.0 | 0.0 | 0.00 | 0.01 | 0.01 | 93 | 1009.5 |
| 20260504211427 | 62 | 45 | 0.0 | 0.0 | 0.00 | 0.01 | 0.01 | 93 | 1009.7 |
| 20260504210917 | 62 | 45 | 0.0 | 0.0 | 0.00 | 0.01 | 0.01 | 93 | 1009.5 |
| 20260504210407 | 62 | 68 | 0.0 | 0.0 | 0.00 | 0.01 | 0.01 | 93 | 1009.3 |
| 20260504204836 | 61 | 68 | 0.0 | 0.0 | 0.00 | 0.01 | 0.01 | 93 | 1009.4 |
| 20260504204327 | 61 | 68 | 0.0 | 0.0 | 0.00 | 0.01 | 0.01 | 93 | 1009.4 |
| 20260504203816 | 61 | 68 | 0.0 | 0.0 | 0.00 | 0.01 | 0.01 | 93 | 1009.4 |
| 20260504202756 | 62 | 68 | 0.0 | 0.0 | 0.00 | 0.01 | 0.01 | 93 | 1009.4 |
| 20260504202246 | 62 | 68 | 0.0 | 0.0 | 0.00 | 0.01 | 0.01 | 93 | 1009.2 |
| 20260504201735 | 62 | 68 | 0.0 | 0.0 | 0.00 | 0.01 | 0.01 | 92 | 1009.1 |
| 20260504201227 | 62 | 90 | 0.0 | 0.0 | 0.00 | 0.01 | 0.01 | 92 | 1009.1 |
| 20260504200715 | 62 | 90 | 0.0 | 0.0 | 0.00 | 0.01 | 0.01 | 92 | 1009.2 |
| 20260504200205 | 62 | 90 | 0.0 | 0.0 | 0.00 | 0.01 | 0.01 | 92 | 1009.2 |
| 20260504195655 | 62 | 158 | 0.0 | 0.0 | 0.00 | 0.01 | 0.01 | 92 | 1009.0 |
| 20260504195146 | 62 | 158 | 0.0 | 0.0 | 0.00 | 0.01 | 0.01 | 92 | 1009.0 |
| 20260504194635 | 62 | 158 | 0.0 | 0.0 | 0.00 | 0.01 | 0.01 | 92 | 1009.0 |
| 20260504194125 | 62 | 158 | 0.0 | 0.0 | 0.00 | 0.01 | 0.01 | 92 | 1008.9 |
| 20260504193616 | 62 | 158 | 0.0 | 0.0 | 0.00 | 0.01 | 0.01 | 91 | 1008.8 |
| 20260504193105 | 62 | 158 | 0.0 | 0.0 | 0.00 | 0.01 | 0.01 | 91 | 1008.7 |
| 20260504192555 | 62 | 158 | 0.0 | 0.0 | 0.00 | 0.01 | 0.01 | 91 | 1008.5 |
| 20260504192044 | 62 | 158 | 0.0 | 0.0 | 0.00 | 0.01 | 0.01 | 91 | 1008.2 |
| 20260504191535 | 62 | 158 | 0.0 | 0.0 | 0.00 | 0.01 | 0.01 | 91 | 1007.9 |
| 20260504191024 | 62 | 158 | 0.0 | 0.0 | 0.00 | 0.01 | 0.01 | 91 | 1008.0 |
| 20260504190514 | 63 | 158 | 0.0 | 0.0 | 0.00 | 0.01 | 0.01 | 91 | 1007.9 |
| 20260504190005 | 63 | 135 | 0.0 | 0.0 | 0.00 | 0.01 | 0.01 | 90 | 1008.1 |
| 20260504185455 | 63 | 135 | 0.0 | 0.0 | 0.00 | 0.01 | 0.01 | 90 | 1008.1 |
| 20260504184944 | 64 | 135 | 0.0 | 0.0 | 0.00 | 0.01 | 0.01 | 90 | 1007.9 |
| 20260504183414 | 64 | 158 | 0.0 | 0.0 | 0.00 | 0.01 | 0.01 | 89 | 1007.8 |
| 20260504182904 | 64 | 180 | 0.0 | 0.0 | 0.00 | 0.01 | 0.01 | 89 | 1007.8 |
| 20260504182354 | 64 | 180 | 0.0 | 0.0 | 0.00 | 0.01 | 0.01 | 89 | 1007.9 |
| 20260504181843 | 64 | 158 | 0.0 | 0.0 | 0.00 | 0.01 | 0.01 | 89 | 1007.8 |
| 20260504181332 | 65 | 180 | 0.0 | 0.0 | 0.00 | 0.01 | 0.01 | 89 | 1007.8 |
| 20260504180823 | 65 | 180 | 0.0 | 0.0 | 0.00 | 0.01 | 0.01 | 89 | 1007.7 |
| 20260504180313 | 65 | 225 | 0.0 | 0.0 | 0.00 | 0.01 | 0.01 | 89 | 1007.8 |
| 20260504175253 | 65 | 203 | 0.0 | 0.0 | 0.00 | 0.01 | 0.01 | 90 | 1007.9 |
| 20260504174743 | 65 | 180 | 0.0 | 0.0 | 0.00 | 0.01 | 0.01 | 90 | 1008.0 |
| 20260504173212 | 65 | 180 | 0.0 | 0.0 | 0.00 | 0.01 | 0.01 | 90 | 1007.8 |
| 20260504172703 | 65 | 135 | 0.0 | 0.0 | 0.00 | 0.01 | 0.01 | 90 | 1008.1 |
| 20260504171642 | 65 | 158 | 0.0 | 0.0 | 0.01 | 0.01 | 0.01 | 90 | 1008.0 |
| 20260504171131 | 65 | 158 | 0.0 | 0.0 | 0.01 | 0.01 | 0.01 | 90 | 1007.9 |
| 20260504170622 | 65 | 248 | 0.0 | 0.0 | 0.01 | 0.01 | 0.01 | 90 | 1008.1 |
| 20260504170112 | 65 | 203 | 0.0 | 0.0 | 0.01 | 0.01 | 0.01 | 90 | 1008.3 |
| 20260504160421 | 65 | 158 | 0.0 | 0.0 | 0.00 | 0.00 | 0.00 | 90 | 1008.7 |
| 20260504150219 | 67 | 180 | 0.0 | 0.0 | 0.00 | 0.00 | 0.00 | 81 | 1008.4 |
| 20260504141037 | 71 | 135 | 0.0 | 0.0 | 0.00 | 0.00 | 0.00 | 74 | 1008.4 |
| 20260504140528 | 70 | 180 | 0.0 | 0.0 | 0.00 | 0.00 | 0.00 | 75 | 1008.2 |